Weather observations for the past three days for
New Orleans, New Orleans International Airport
Imperial (Metric)
Date Time (cdt) Wind (mph) Vis. (mi.) Weather Sky Cond. Temperature (ºF) Relative Humidity Wind Chill (°F) Heat Index (°F) Pressure Precipitation (in)
Air Dwpt 6 hour altimeter (in) sea level (mb) 1 hr 3 hr 6 hr
Max. Min.
14 07:53 NW 3 10.00 A Few Clouds FEW030 FEW180 FEW250 82.9 79 88% 94 30.16 1021.6
14 06:53 NW 5 10.00 A Few Clouds FEW030 FEW150 FEW250 79 75.9 81 77 90% 83 30.14 1021.0
14 05:53 W 3 10.00 A Few Clouds FEW030 FEW250 78.1 75.9 93% 81 30.13 1020.6
14 04:53 W 3 10.00 Fair CLR 79 75.9 90% 83 30.12 1020.2
14 03:53 W 3 10.00 Fair CLR 78.1 77 97% 81 30.1 1019.7
14 02:53 W 3 10.00 Fair CLR 79 78.1 97% 83 30.11 1019.7
14 01:53 SW 5 10.00 A Few Clouds FEW030 80.1 78.1 94% 86 30.12 1020.2
14 00:53 W 3 10.00 A Few Clouds FEW250 80.1 78.1 91 80.1 94% 86 30.14 1021.0
13 23:53 SW 3 10.00 A Few Clouds FEW030 81 78.1 91% 89 30.16 1021.5
13 22:53 SW 5 10.00 A Few Clouds FEW030 82.9 78.1 85% 93 30.16 1021.6
13 21:53 SW 7 10.00 A Few Clouds FEW030 FEW250 84 78.1 82% 95 30.15 1021.3
13 20:53 SW 5 10.00 A Few Clouds FEW030 FEW250 84.9 78.1 80% 97 30.15 1021.2
13 19:53 SW 5 10.00 Partly Cloudy FEW035 SCT250 86 78.1 77% 98 30.14 1021.0
13 18:53 S 7 10.00 Partly Cloudy FEW035 SCT250 91 77 96.1 91 64% 105 30.13 1020.5
13 17:53 SE 9 10.00 Partly Cloudy SCT035 SCT250 91.9 75 58% 103 30.11 1019.7
13 16:53 Calm 10.00 Mostly Cloudy SCT050 BKN250 93 73 52% 102 30.11 1020.0
13 15:53 Vrbl 5 10.00 Partly Cloudy FEW050 SCT250 96.1 71.1 44% 104 30.12 1020.2
13 14:53 SW 6 10.00 Partly Cloudy SCT044 SCT250 93.9 75 54% 106 30.14 1020.8
13 13:53 Vrbl 6 10.00 Partly Cloudy SCT040 SCT250 93 77 60% 107 30.16 1021.7
13 12:53 Vrbl 3 10.00 Mostly Cloudy SCT040 BKN250 93 75 93.9 80.1 56% 104 30.17 1022.1
13 11:53 W 6 10.00 Mostly Cloudy BKN035 BKN045 BKN250 91 75.9 61% 103 30.18 1022.4
13 10:53 Calm 10.00 Mostly Cloudy SCT030 BKN250 90 75 62% 100 30.19 1022.6
13 09:53 W 3 10.00 Partly Cloudy FEW030 SCT250 88 75.9 68% 99 30.19 1022.6
13 08:53 W 7 10.00 Partly Cloudy FEW030 SCT250 86 78.1 77% 98 30.19 1022.5
13 07:53 W 5 10.00 Fair CLR 84 77 80% 94 30.17 1022.0
13 06:53 Calm 10.00 Fair CLR 80.1 77 81 79 90% 86 30.15 1021.2
13 05:53 SW 3 10.00 A Few Clouds FEW035 FEW250 79 77 94% 83 30.14 1020.8
13 04:53 W 3 10.00 A Few Clouds FEW250 79 77 94% 83 30.12 1020.3
13 02:53 SW 7 10.00 A Few Clouds FEW250 80.1 77 90% 86 30.11 1019.7
13 01:53 SW 3 10.00 A Few Clouds FEW250 80.1 77 90% 86 30.11 1020.0
13 00:53 SW 5 10.00 A Few Clouds FEW040 FEW250 81 77 89.1 81 88% 88 30.11 1020.0
12 23:53 SW 5 10.00 Fair CLR 82.9 77 82% 92 30.11 1019.9
12 22:53 S 6 10.00 Partly Cloudy FEW038 FEW150 SCT250 84.9 77 77% 95 30.11 1019.9
12 21:53 SW 5 10.00 Partly Cloudy FEW038 FEW150 SCT250 82.9 78.1 85% 93 30.1 1019.7
12 20:53 W 5 10.00 Mostly Cloudy SCT042 BKN050 BKN080 84.9 78.1 80% 97 30.1 1019.4
12 19:53 S 7 10.00 Partly Cloudy SCT042TCU SCT250 87.1 78.1 75% 100 30.08 1018.8
12 18:53 S 10 10.00 Partly Cloudy FEW040 SCT250 90 75.9 91.9 84 63% 102 30.06 1018.2
12 17:53 W 6 10.00 Partly Cloudy FEW038 SCT250 91.9 73.9 56% 102 30.06 1018.0
12 16:53 Vrbl 5 10.00 Partly Cloudy FEW035 SCT250 91 75 59% 102 30.05 1018.0
12 15:53 Vrbl 3 10.00 Partly Cloudy SCT032 SCT250 91 77 64% 105 30.06 1018.1
12 14:53 Calm 10.00 Mostly Cloudy FEW025 SCT035 SCT090 BKN250 88 78.1 73% 102 30.07 1018.4
12 13:53 Calm 10.00 Mostly Cloudy FEW035TCU FEW100 FEW190 BKN250 87.1 79 77% 101 30.1 1019.5
12 12:53 S 3 10.00 Mostly Cloudy FEW035 FEW150 BKN250 84 75.9 87.1 78.1 77% 93 30.12 1020.1 0.66
12 11:53 Calm 10.00 Mostly Cloudy FEW035 SCT075 BKN130 BKN250 80.1 75.9 87% 85 30.12 1020.1 0.08
12 10:53 SW 6 2.50 Thunderstorm Heavy Rain Fog/Mist FEW020 BKN037CB BKN075 OVC250 78.1 73.9 87% 81 30.12 1020.3 0.58
12 09:53 W 5 10.00 Mostly Cloudy SCT030CB BKN150 BKN250 84.9 77 77% 95 30.1 1019.6
12 08:53 Vrbl 3 10.00 Partly Cloudy FEW030 FEW080 FEW150 SCT250 86 77 75% 97 30.09 1019.2
12 07:53 Calm 10.00 A Few Clouds FEW030 FEW150 FEW250 84 77 80% 94 30.07 1018.5
12 06:53 Calm 7.00 A Few Clouds FEW030 FEW150 FEW250 78.1 78.1 79 75.9 100% 81 30.05 1018.0
12 05:53 Calm 10.00 Partly Cloudy FEW030 FEW150 SCT250 77 75.9 96% 78 30.04 1017.5
12 04:53 Calm 9.00 Partly Cloudy SCT030 SCT250 78.1 77 97% 81 30.02 1016.9
12 03:53 W 3 10.00 A Few Clouds FEW020 77 77 100% 78 30.02 1016.7
12 02:53 W 3 10.00 Fair CLR 77 75.9 96% 78 30.01 1016.6
12 01:53 Calm 10.00 Fair CLR 78.1 77 97% 81 30.02 1016.9
12 00:53 Calm 10.00 A Few Clouds FEW015 79 77 84.9 79 94% 83 30.03 1017.3
11 23:53 Calm 10.00 A Few Clouds FEW020 FEW250 80.1 77 90% 86 30.03 1017.2
11 22:53 Calm 10.00 A Few Clouds FEW015 FEW090 FEW250 81 78.1 91% 89 30.02 1016.9
11 21:53 W 5 10.00 A Few Clouds FEW015 FEW085 FEW250 80.1 77 90% 86 30.01 1016.5
11 20:53 Calm 10.00 Partly Cloudy FEW030 FEW090 SCT250 82.9 77 82% 92 30 1016.2
11 19:53 W 3 10.00 Mostly Cloudy FEW025 FEW055 SCT090 BKN250 82.9 75.9 79% 91 30.01 1016.7
11 18:53 S 5 10.00 Mostly Cloudy FEW030 FEW055 SCT090 BKN250 84.9 77 89.1 78.1 77% 95 30.01 1016.6 0.03
11 17:53 S 3 10.00 Mostly Cloudy FEW030 SCT055 BKN100 BKN250 84.9 71.1 63% 90 30 1016.3
11 16:53 SE 14 10.00 Mostly Cloudy SCT030 SCT090 BKN250 84.9 72 65% 91 30 1016.1
11 15:53 Vrbl 6 10.00 Partly Cloudy SCT030 SCT090 SCT250 88 77 70% 100 30.01 1016.4 0.03
11 14:53 Calm 10.00 Mostly Cloudy FEW035 SCT075 SCT100 BKN250 87.1 72 61% 94 30.01 1016.6
11 13:53 SE 5 10.00 Light Rain FEW030 SCT070 BKN090 BKN250 80.1 73.9 82% 85 30.03 1017.1 0.03
11 12:53 E 6 6.00 Thunderstorm Light Rain Fog/Mist SCT030CB BKN070 BKN150 OVC250 78.1 75 88 75.9 90% 81 30.06 1018.1 0.95 0.98
11 11:53 SE 14 G 23 2.50 Thunderstorm Heavy Rain Fog/Mist BKN024CB BKN060 BKN150 BKN250 80.1 77 90% 86 30.06 1018.3 0.03
11 10:53 Calm 10.00 Mostly Cloudy SCT020 BKN029 BKN039 BKN150 BKN250 86 77 75% 97 30.05 1017.8
11 09:53 NE 5 10.00 Mostly Cloudy FEW030 FEW150 BKN250 84 77 80% 94 30.05 1017.7
11 08:53 N 3 10.00 Mostly Cloudy FEW026 SCT150 BKN250 82 73.9 77% 88 30.04 1017.4
Date Time (cdt) Wind (mph) Vis. (mi.) Weather Sky Cond. Air Dwpt Max. Min. Relative Humidity Wind Chill (°F) Heat Index (°F) altimeter (in) sea level (mb) 1 hr 3 hr 6 hr
6 hour
Temperature (ºF) Pressure Precipitation (in)